TimeCEST,TemperatureF,Dew PointF,Humidity,Sea Level PressureIn,VisibilityMPH,Wind Direction,Wind SpeedMPH,Gust SpeedMPH,PrecipitationIn,Events,Conditions,WindDirDegrees,DateUTC
12:00 AM,60.8,57.2,88,29.89,5.0,SSW,9.2,-,N/A,,Partly Cloudy,210,2013-04-11 22:00:00
12:30 AM,59.0,57.2,94,29.89,5.0,SSW,9.2,-,N/A,,Partly Cloudy,210,2013-04-11 22:30:00
1:00 AM,60.8,57.2,88,29.89,5.0,NNE,3.5,-,N/A,,Partly Cloudy,20,2013-04-11 23:00:00
1:30 AM,60.8,57.2,88,29.89,5.0,Calm,Calm,-,N/A,,Partly Cloudy,0,2013-04-11 23:30:00
2:00 AM,56,52,80,29.91,5,ENE,5.8,,,,Mist,70,2013-04-12 00:00:00
2:00 AM,57.2,53.6,88,29.89,5.0,ENE,5.8,-,N/A,,Partly Cloudy,70,2013-04-12 00:00:00
2:30 AM,55.4,53.6,94,29.92,6.2,Variable,1.2,-,N/A,,Partly Cloudy,0,2013-04-12 00:30:00
3:00 AM,55.4,53.6,94,29.92,6.2,Variable,1.2,-,N/A,,Partly Cloudy,0,2013-04-12 01:00:00
3:30 AM,55.4,53.6,94,29.92,6.2,East,3.5,-,N/A,,Partly Cloudy,80,2013-04-12 01:30:00
4:00 AM,53.6,51.8,94,29.92,6.2,Variable,2.3,-,N/A,,Partly Cloudy,0,2013-04-12 02:00:00
4:30 AM,51.8,50.0,94,29.92,6.2,ENE,1.2,-,N/A,,Partly Cloudy,60,2013-04-12 02:30:00
5:00 AM,51.8,50.0,94,29.92,6.2,Calm,Calm,-,N/A,,Partly Cloudy,0,2013-04-12 03:00:00
5:30 AM,51.8,50.0,94,29.92,6.2,Calm,Calm,-,N/A,,Partly Cloudy,0,2013-04-12 03:30:00
6:00 AM,51.8,50.0,94,29.92,6.2,Variable,2.3,-,N/A,,Partly Cloudy,0,2013-04-12 04:00:00
6:30 AM,51.8,50.0,94,29.92,6.2,Calm,Calm,-,N/A,,Partly Cloudy,0,2013-04-12 04:30:00
7:00 AM,50.0,48.2,94,29.95,6.2,Calm,Calm,-,N/A,,Partly Cloudy,0,2013-04-12 05:00:00
7:30 AM,50.0,48.2,94,29.95,6.2,Calm,Calm,-,N/A,,Partly Cloudy,0,2013-04-12 05:30:00
8:00 AM,49,46,86,29.98,12,ENE,1.2,,,,Scattered Clouds,70,2013-04-12 06:00:00
8:00 AM,50.0,48.2,94,29.98,6.2,Variable,1.2,-,N/A,,Partly Cloudy,0,2013-04-12 06:00:00
8:30 AM,53.6,51.8,94,29.98,6.2,Variable,1.2,-,N/A,,Partly Cloudy,0,2013-04-12 06:30:00
9:00 AM,59.0,55.4,88,29.98,6.2,Calm,Calm,-,N/A,,Partly Cloudy,0,2013-04-12 07:00:00
9:30 AM,62.6,57.2,82,29.98,6.2,Calm,Calm,-,N/A,,Partly Cloudy,0,2013-04-12 07:30:00
10:00 AM,66.2,53.6,64,30.01,6.2,SW,4.6,-,N/A,,Partly Cloudy,220,2013-04-12 08:00:00
10:30 AM,68.0,53.6,60,30.01,6.2,WSW,6.9,-,N/A,,Partly Cloudy,240,2013-04-12 08:30:00
11:00 AM,69.8,53.6,56,30.01,6.2,WSW,13.8,-,N/A,,Partly Cloudy,250,2013-04-12 09:00:00
11:30 AM,69.8,53.6,56,30.01,6.2,WSW,12.7,-,N/A,,Partly Cloudy,250,2013-04-12 09:30:00
12:00 PM,69.8,53.6,56,30.01,6.2,WSW,12.7,-,N/A,,Partly Cloudy,250,2013-04-12 10:00:00
12:30 PM,71.6,51.8,50,30.01,6.2,SSW,12.7,-,N/A,,Partly Cloudy,210,2013-04-12 10:30:00
1:00 PM,71.6,51.8,50,30.01,6.2,WSW,11.5,-,N/A,,Partly Cloudy,240,2013-04-12 11:00:00
1:30 PM,71.6,53.6,53,30.01,6.2,SW,12.7,-,N/A,,Partly Cloudy,230,2013-04-12 11:30:00
2:00 PM,71,50,37,30.02,19,SW,15.0,,,,Scattered Clouds,230,2013-04-12 12:00:00
2:00 PM,71.6,55.4,57,30.01,6.2,SW,13.8,-,N/A,,Partly Cloudy,230,2013-04-12 12:00:00
2:30 PM,69.8,55.4,60,30.01,6.2,SW,13.8,-,N/A,,Partly Cloudy,230,2013-04-12 12:30:00
3:00 PM,69.8,53.6,56,30.01,6.2,SSW,10.4,-,N/A,,Partly Cloudy,210,2013-04-12 13:00:00
3:30 PM,69.8,57.2,64,30.01,6.2,SSW,10.4,-,N/A,,Partly Cloudy,210,2013-04-12 13:30:00
4:00 PM,69.8,55.4,60,30.01,6.2,SSW,11.5,-,N/A,,Partly Cloudy,210,2013-04-12 14:00:00
4:30 PM,68.0,55.4,64,30.01,6.2,SSW,12.7,-,N/A,,Partly Cloudy,200,2013-04-12 14:30:00
5:00 PM,66.2,55.4,68,30.01,6.2,SSW,11.5,-,N/A,,Partly Cloudy,200,2013-04-12 15:00:00
5:30 PM,66.2,55.4,68,30.01,6.2,SSW,13.8,-,N/A,,Partly Cloudy,210,2013-04-12 15:30:00
6:00 PM,66.2,53.6,64,30.01,6.2,SW,13.8,-,N/A,,Partly Cloudy,220,2013-04-12 16:00:00
6:30 PM,64.4,53.6,68,30.01,6.2,SW,12.7,-,N/A,,Partly Cloudy,220,2013-04-12 16:30:00
7:00 PM,66.2,53.6,64,30.01,-9999.0,SW,11.5,-,N/A,,Clear,230,2013-04-12 17:00:00
7:30 PM,64.4,51.8,64,30.01,-9999.0,SW,11.5,-,N/A,,Clear,220,2013-04-12 17:30:00
8:00 PM,63,49,51,30.01,16,SSW,12.7,,,,Scattered Clouds,210,2013-04-12 18:00:00
8:00 PM,64.4,53.6,68,30.01,-9999.0,SSW,9.2,-,N/A,,Clear,210,2013-04-12 18:00:00
8:30 PM,62.6,53.6,72,30.01,-9999.0,South,5.8,-,N/A,,Clear,190,2013-04-12 18:30:00
9:00 PM,60.8,53.6,77,30.04,-9999.0,SSW,3.5,-,N/A,,Clear,200,2013-04-12 19:00:00
9:30 PM,59.0,53.6,82,30.04,-9999.0,Calm,Calm,-,N/A,,Clear,0,2013-04-12 19:30:00
10:00 PM,59.0,53.6,82,30.06,-9999.0,Variable,1.2,-,N/A,,Clear,0,2013-04-12 20:00:00
10:30 PM,59.0,51.8,77,30.06,-9999.0,East,1.2,-,N/A,,Clear,100,2013-04-12 20:30:00
11:00 PM,53.6,50.0,88,30.09,-9999.0,Variable,1.2,-,N/A,,Clear,0,2013-04-12 21:00:00
11:30 PM,51.8,48.2,88,30.09,-9999.0,Calm,Calm,-,N/A,,Clear,0,2013-04-12 21:30:00